{"data":{"norad_id":60496,"epoch":"2026-09-22T17:13:50.917152Z","epoch_age_seconds":94643,"freshness":"FRESH","line1":"1 60496U 24149AE  26265.71795043  .00002819  00000+0  11304-3 0  9993","line2":"2 60496  97.3684 342.1734 0000898  12.5531 347.5730 15.25821714116777","mean_motion":15.25821714,"eccentricity":8.98e-5,"inclination_deg":97.3684,"raan_deg":342.1734,"arg_perigee_deg":12.5531,"mean_anomaly_deg":347.573,"bstar":0.00011304,"rev_number":11677,"period_min":94.375377331929,"perigee_km":487.70248435373,"apogee_km":488.93569986787,"semimajor_km":6866.4560921108,"source":"CELESTRAK","updated_at":"2026-09-23T09:00:20.657827Z"}}